TimeCET,TemperatureF,Dew PointF,Humidity,Sea Level PressureIn,VisibilityMPH,Wind Direction,Wind SpeedMPH,Gust SpeedMPH,PrecipitationIn,Events,Conditions,WindDirDegrees,DateUTC
12:00 AM,50.0,50.0,100,29.65,6.2,Calm,Calm,-,N/A,,Scattered Clouds,0,2013-03-08 23:00:00
12:30 AM,50.0,50.0,100,29.65,6.2,Variable,1.2,-,N/A,,Scattered Clouds,0,2013-03-08 23:30:00
1:00 AM,52,49,87,29.64,6,SSW,2.3,,,,Scattered Clouds,210,2013-03-09 00:00:00
1:00 AM,50.0,50.0,100,29.65,6.2,Calm,Calm,-,N/A,,Scattered Clouds,0,2013-03-09 00:00:00
1:30 AM,50.0,50.0,100,29.62,6.2,Calm,Calm,-,N/A,,Scattered Clouds,0,2013-03-09 00:30:00
2:00 AM,50.0,50.0,100,29.62,6.2,Variable,1.2,-,N/A,,Scattered Clouds,0,2013-03-09 01:00:00
2:30 AM,50.0,50.0,100,29.62,6.2,Variable,1.2,-,N/A,,Scattered Clouds,0,2013-03-09 01:30:00
3:00 AM,50.0,50.0,100,29.62,6.2,Calm,Calm,-,N/A,,Scattered Clouds,0,2013-03-09 02:00:00
3:30 AM,50.0,50.0,100,29.62,6.2,Calm,Calm,-,N/A,,Scattered Clouds,0,2013-03-09 02:30:00
4:00 AM,50.0,48.2,94,29.59,6.2,Calm,Calm,-,N/A,,Scattered Clouds,0,2013-03-09 03:00:00
4:30 AM,48.2,48.2,100,29.59,6.2,Calm,Calm,-,N/A,,Scattered Clouds,0,2013-03-09 03:30:00
5:00 AM,46.4,46.4,100,29.59,6.2,Variable,1.2,-,N/A,,Scattered Clouds,0,2013-03-09 04:00:00
5:30 AM,48.2,48.2,100,29.59,6.2,Variable,2.3,-,N/A,,Scattered Clouds,0,2013-03-09 04:30:00
6:00 AM,50.0,48.2,94,29.59,6.2,NNE,4.6,-,N/A,,Scattered Clouds,20,2013-03-09 05:00:00
6:30 AM,50.0,48.2,94,29.62,6.2,North,6.9,-,N/A,,Partly Cloudy,10,2013-03-09 05:30:00
7:00 AM,53,47,73,29.62,,NNW,4.6,,,,,330,2013-03-09 06:00:00
7:00 AM,51.8,48.2,88,29.62,6.2,NNW,4.6,-,N/A,,Partly Cloudy,340,2013-03-09 06:00:00
7:30 AM,53.6,42.8,67,29.62,6.2,NW,5.8,-,N/A,,Scattered Clouds,320,2013-03-09 06:30:00
8:00 AM,53.6,44.6,72,29.62,6.2,NW,3.5,-,N/A,,Scattered Clouds,320,2013-03-09 07:00:00
8:30 AM,55.4,44.6,67,29.62,6.2,WNW,5.8,-,N/A,,Scattered Clouds,300,2013-03-09 07:30:00
9:00 AM,57.2,44.6,63,29.65,6.2,WNW,4.6,-,N/A,,Scattered Clouds,300,2013-03-09 08:00:00
9:30 AM,57.2,46.4,67,29.65,6.2,SSW,4.6,-,N/A,,Partly Cloudy,210,2013-03-09 08:30:00
10:00 AM,59.0,46.4,63,29.65,6.2,Calm,Calm,-,N/A,,Partly Cloudy,0,2013-03-09 09:00:00
10:30 AM,60.8,44.6,55,29.65,6.2,Calm,Calm,-,N/A,,Partly Cloudy,0,2013-03-09 09:30:00
11:00 AM,60.8,46.4,59,29.65,6.2,South,3.5,-,N/A,,Partly Cloudy,180,2013-03-09 10:00:00
11:30 AM,60.8,44.6,55,29.65,6.2,South,5.8,-,N/A,,Partly Cloudy,170,2013-03-09 10:30:00
12:00 PM,62.6,44.6,52,29.65,6.2,SSE,4.6,-,N/A,,Scattered Clouds,150,2013-03-09 11:00:00
12:30 PM,62.6,48.2,59,29.65,6.2,South,9.2,-,N/A,,Scattered Clouds,190,2013-03-09 11:30:00
1:00 PM,67,47,38,29.63,34,South,6.9,,,,Partly Cloudy,190,2013-03-09 12:00:00
1:00 PM,64.4,44.6,49,29.65,6.2,South,6.9,-,N/A,,Scattered Clouds,180,2013-03-09 12:00:00
1:30 PM,64.4,44.6,49,29.65,6.2,SSE,8.1,-,N/A,,Scattered Clouds,160,2013-03-09 12:30:00
2:00 PM,64.4,44.6,49,29.62,6.2,SSE,11.5,-,N/A,,Scattered Clouds,160,2013-03-09 13:00:00
2:30 PM,64.4,44.6,49,29.62,6.2,Variable,4.6,-,N/A,,Scattered Clouds,0,2013-03-09 13:30:00
3:00 PM,66.2,41.0,40,29.59,6.2,South,3.5,-,N/A,,Scattered Clouds,170,2013-03-09 14:00:00
3:30 PM,66.2,37.4,35,29.59,6.2,West,15.0,-,N/A,,Scattered Clouds,270,2013-03-09 14:30:00
4:00 PM,68.0,37.4,33,29.59,6.2,West,10.4,-,N/A,,Scattered Clouds,260,2013-03-09 15:00:00
4:30 PM,66.2,39.2,37,29.59,6.2,WSW,12.7,-,N/A,,Scattered Clouds,250,2013-03-09 15:30:00
5:00 PM,66.2,39.2,37,29.59,6.2,WSW,12.7,24.2,N/A,,Scattered Clouds,250,2013-03-09 16:00:00
5:30 PM,66.2,39.2,37,29.59,6.2,West,8.1,-,N/A,,Partly Cloudy,270,2013-03-09 16:30:00
6:00 PM,64.4,46.4,52,29.62,6.2,NW,4.6,-,N/A,,Partly Cloudy,310,2013-03-09 17:00:00
6:30 PM,59.0,48.2,67,29.62,6.2,NNE,2.3,-,N/A,,Partly Cloudy,20,2013-03-09 17:30:00
7:00 PM,58,49,62,29.62,19,NE,2.3,,,,Scattered Clouds,50,2013-03-09 18:00:00
7:00 PM,57.2,48.2,72,29.62,6.2,Variable,1.2,-,N/A,,Partly Cloudy,0,2013-03-09 18:00:00
7:30 PM,55.4,46.4,72,29.62,6.2,NE,6.9,-,N/A,,Partly Cloudy,50,2013-03-09 18:30:00
8:00 PM,55.4,46.4,72,29.65,6.2,North,1.2,-,N/A,,Partly Cloudy,360,2013-03-09 19:00:00
8:30 PM,53.6,46.4,77,29.65,6.2,Variable,2.3,-,N/A,,Partly Cloudy,0,2013-03-09 19:30:00
9:00 PM,51.8,46.4,82,29.65,6.2,North,1.2,-,N/A,,Partly Cloudy,10,2013-03-09 20:00:00
9:30 PM,55.4,42.8,63,29.65,6.2,SW,8.1,-,N/A,,Partly Cloudy,230,2013-03-09 20:30:00
10:00 PM,50.0,42.8,76,29.65,6.2,Variable,1.2,-,N/A,,Partly Cloudy,0,2013-03-09 21:00:00
10:30 PM,50.0,42.8,76,29.65,6.2,Calm,Calm,-,N/A,,Partly Cloudy,0,2013-03-09 21:30:00
11:00 PM,51.8,42.8,71,29.65,6.2,Calm,Calm,-,N/A,,Partly Cloudy,0,2013-03-09 22:00:00
11:30 PM,55.4,41.0,58,29.65,6.2,Variable,2.3,-,N/A,,Partly Cloudy,0,2013-03-09 22:30:00